TimeCST,TemperatureF,Dew PointF,Humidity,Sea Level PressureIn,VisibilityMPH,Wind Direction,Wind SpeedMPH,Gust SpeedMPH,PrecipitationIn,Events,Conditions,WindDirDegrees,DateUTC
12:53 AM,43.0,25.0,49,30.20,10.0,North,5.8,-,N/A,,Clear,360,2012-11-16 06:53:00
1:53 AM,44.1,30.0,58,30.20,10.0,NNE,5.8,-,N/A,,Clear,30,2012-11-16 07:53:00
2:53 AM,46.0,33.1,61,30.20,10.0,NNE,6.9,-,N/A,,Clear,30,2012-11-16 08:53:00
3:53 AM,46.9,35.1,63,30.20,10.0,NE,6.9,-,N/A,,Clear,50,2012-11-16 09:53:00
4:53 AM,46.9,34.0,61,30.19,10.0,NE,5.8,-,N/A,,Clear,50,2012-11-16 10:53:00
5:53 AM,46.9,34.0,61,30.23,10.0,NNE,5.8,-,N/A,,Clear,30,2012-11-16 11:53:00
6:53 AM,46.0,32.0,58,30.25,10.0,NNE,6.9,-,N/A,,Clear,20,2012-11-16 12:53:00
7:53 AM,46.9,28.9,50,30.26,10.0,NNE,4.6,-,N/A,,Clear,30,2012-11-16 13:53:00
8:53 AM,51.1,33.1,50,30.28,10.0,ENE,6.9,-,N/A,,Clear,70,2012-11-16 14:53:00
9:53 AM,54.0,37.9,55,30.30,10.0,East,4.6,-,N/A,,Clear,100,2012-11-16 15:53:00
10:53 AM,60.1,41.0,49,30.28,10.0,East,5.8,-,N/A,,Clear,80,2012-11-16 16:53:00
11:53 AM,63.0,43.0,48,30.26,10.0,ESE,8.1,16.1,N/A,,Clear,110,2012-11-16 17:53:00
12:53 PM,64.0,43.0,46,30.22,10.0,ESE,9.2,-,N/A,,Clear,120,2012-11-16 18:53:00
1:53 PM,66.0,42.1,42,30.19,10.0,SE,10.4,-,N/A,,Clear,140,2012-11-16 19:53:00
2:53 PM,66.0,37.9,36,30.18,10.0,ESE,9.2,-,N/A,,Clear,120,2012-11-16 20:53:00
3:53 PM,64.9,37.0,36,30.16,10.0,SE,8.1,-,N/A,,Clear,140,2012-11-16 21:53:00
4:53 PM,64.0,39.0,40,30.17,10.0,SE,12.7,17.3,N/A,,Clear,140,2012-11-16 22:53:00
5:53 PM,62.1,42.1,48,30.16,10.0,ESE,9.2,-,N/A,,Clear,120,2012-11-16 23:53:00
6:53 PM,60.1,43.0,53,30.19,10.0,SE,5.8,-,N/A,,Scattered Clouds,140,2012-11-17 00:53:00
7:53 PM,57.0,44.1,62,30.21,10.0,SSE,6.9,-,N/A,,Clear,150,2012-11-17 01:53:00
8:53 PM,53.1,44.1,71,30.22,10.0,SSE,6.9,-,N/A,,Clear,150,2012-11-17 02:53:00
9:53 PM,55.0,45.0,69,30.20,10.0,SE,8.1,-,N/A,,Clear,140,2012-11-17 03:53:00
10:53 PM,53.1,45.0,74,30.21,10.0,SE,6.9,-,N/A,,Clear,140,2012-11-17 04:53:00
11:53 PM,52.0,46.0,80,30.19,10.0,SE,8.1,-,N/A,,Clear,130,2012-11-17 05:53:00